Simultaneous Nadir Overpasses (SNOs) Predictions

Prediction of SNOs between METOP-B and NPP Satellite Orbit:

Table of predicted SNOs for the next 14.0 days since TLE Epoch: 6/29/2019
Index Date (METOP-B) Time (METOP-B) Lat,Lon (METOP-B) SZA (METOP-B ) Date (NPP) Time (NPP) Lat,Lon (NPP) SZA (NPP ) Distance(km) Time Diff (sec)
1 07/06/2019 20:51:15 -73.53, 40.58 129.03 07/06/2019 20:50:08 -73.51, 37.65 128.88 92.34 67
2 07/06/2019 21:41:59 73.31,-152.58 50.79 07/06/2019 21:40:50 73.31,-154.59 50.91 64.27 69
3 07/06/2019 22:32:42 -73.21, 14.52 129.31 07/06/2019 22:31:31 -73.21, 12.94 129.20 50.63 71
4 07/06/2019 23:23:26 72.99,-178.62 50.51 07/06/2019 23:22:13 73.01,-179.31 50.58 22.51 73
5 07/07/2019 00:14:09 -72.94, -11.41 129.54 07/07/2019 00:12:55 -72.91, -11.79 129.52 12.63 74
6 07/07/2019 01:04:51 72.82, 155.67 50.36 07/07/2019 01:03:39 72.81, 155.74 50.37 2.13 72
7 07/07/2019 01:55:33 -72.81, -37.01 129.64 07/07/2019 01:54:23 -72.82, -36.96 129.62 1.57 70
8 07/07/2019 02:46:13 72.80, 130.29 50.35 07/07/2019 02:45:09 72.82, 130.35 50.38 2.96 64
9 07/07/2019 03:36:54 -72.84, -62.28 129.60 07/07/2019 03:35:53 -72.82, -62.34 129.61 3.13 61
10 07/07/2019 04:27:34 72.83, 105.01 50.39 07/07/2019 04:26:39 72.82, 104.97 50.40 1.59 55
11 07/07/2019 05:18:16 -72.82, -87.67 129.62 07/07/2019 05:17:23 -72.83, -87.73 129.60 1.94 53
12 07/07/2019 06:08:56 72.80, 79.63 50.38 07/07/2019 06:08:09 72.82, 79.59 50.41 2.48 47
13 07/07/2019 06:59:38 -72.80,-113.05 129.63 07/07/2019 06:58:52 -72.78,-113.00 129.64 2.99 46
14 07/07/2019 07:50:18 72.78, 54.25 50.37 07/07/2019 07:49:38 72.78, 54.31 50.37 2.26 40
15 07/07/2019 08:41:00 -72.78,-138.43 129.64 07/07/2019 08:40:22 -72.78,-138.39 129.63 1.61 38
16 07/07/2019 09:31:40 72.76, 28.86 50.36 07/07/2019 09:31:08 72.78, 28.93 50.38 2.91 32
17 07/07/2019 10:22:21 -72.81,-163.71 129.60 07/07/2019 10:21:52 -72.79,-163.77 129.62 3.23 29
18 07/07/2019 11:13:01 72.79, 3.59 50.39 07/07/2019 11:12:38 72.78, 3.55 50.39 1.60 23
19 07/07/2019 12:03:43 -72.79, 170.91 129.61 07/07/2019 12:03:22 -72.79, 170.85 129.60 1.84 21
20 07/07/2019 12:54:23 72.77, -21.80 50.38 07/07/2019 12:54:08 72.79, -21.84 50.40 2.32 15
21 07/07/2019 13:45:05 -72.77, 145.52 129.62 07/07/2019 13:44:51 -72.74, 145.57 129.65 3.18 14
22 07/07/2019 14:35:45 72.75, -47.18 50.37 07/07/2019 14:35:37 72.74, -47.12 50.36 2.37 8
23 07/07/2019 15:26:27 -72.75, 120.14 129.63 07/07/2019 15:26:21 -72.75, 120.19 129.64 1.65 6
24 07/07/2019 16:17:07 72.73, -72.56 50.36 07/07/2019 16:17:07 72.75, -72.50 50.37 2.86 0
25 07/07/2019 17:07:49 -72.73, 94.76 129.64 07/07/2019 17:07:51 -72.75, 94.81 129.62 3.27 2
26 07/07/2019 17:58:28 72.76, -97.84 50.39 07/07/2019 17:58:37 72.75, -97.88 50.38 1.64 9
27 07/07/2019 18:49:10 -72.76, 69.48 129.61 07/07/2019 18:49:21 -72.76, 69.42 129.61 1.78 11
28 07/07/2019 19:39:50 72.74,-123.23 50.38 07/07/2019 19:40:07 72.75,-123.26 50.39 2.17 17
29 07/07/2019 20:30:32 -72.74, 44.09 129.62 07/07/2019 20:30:51 -72.76, 44.04 129.60 3.24 19
30 07/07/2019 21:21:12 72.72,-148.61 50.37 07/07/2019 21:21:36 72.71,-148.54 50.35 2.47 24
31 07/07/2019 22:11:54 -72.71, 18.71 129.63 07/07/2019 22:12:20 -72.71, 18.76 129.64 1.70 26
32 07/07/2019 23:02:34 72.70,-173.99 50.36 07/07/2019 23:03:06 72.71,-173.92 50.36 2.80 32
33 07/07/2019 23:53:16 -72.69, -6.67 129.64 07/07/2019 23:53:50 -72.72, -6.62 129.63 3.14 34
34 07/08/2019 00:43:55 72.73, 160.73 50.39 07/08/2019 00:44:36 72.72, 160.69 50.38 1.70 41
35 07/08/2019 01:34:37 -72.72, -31.95 129.61 07/08/2019 01:35:20 -72.72, -32.00 129.62 1.75 43
36 07/08/2019 02:25:17 72.71, 135.35 50.38 07/08/2019 02:26:06 72.72, 135.31 50.39 2.03 49
37 07/08/2019 03:15:59 -72.70, -57.33 129.62 07/08/2019 03:16:50 -72.73, -57.39 129.61 3.08 51
38 07/08/2019 04:06:39 72.68, 109.96 50.37 07/08/2019 04:07:35 72.67, 110.03 50.34 2.56 56
39 07/08/2019 04:57:21 -72.68, -82.72 129.63 07/08/2019 04:58:19 -72.68, -82.66 129.65 1.75 58
40 07/08/2019 05:48:01 72.66, 84.58 50.36 07/08/2019 05:49:05 72.68, 84.65 50.36 2.74 64
41 07/08/2019 06:38:43 -72.66,-108.10 129.64 07/08/2019 06:39:49 -72.68,-108.05 129.64 3.01 66
42 07/08/2019 07:29:22 72.69, 59.30 50.40 07/08/2019 07:30:35 72.68, 59.27 50.37 1.78 73
43 07/08/2019 08:20:05 -72.64,-133.48 129.65 07/08/2019 08:21:18 -72.64,-133.33 129.68 5.19 73
44 07/08/2019 09:10:49 72.42, 33.40 50.17 07/08/2019 09:12:00 72.43, 34.40 50.10 33.44 71
45 07/08/2019 10:01:32 -72.36,-159.37 129.88 07/08/2019 10:02:43 -72.39,-158.20 129.95 39.73 71
46 07/08/2019 10:52:17 72.09, 7.43 49.89 07/08/2019 10:53:24 72.13, 9.62 49.78 75.08 67
47 07/08/2019 11:43:00 -72.04, 174.65 130.15 07/08/2019 11:44:07 -72.08, 177.02 130.27 81.21 67




NCC Satellite Simultaneous Nadir Overpasses (SNOs) Prediction Service
